Погода в Л'Ансьен-Лорет

Канада     46°48′45″N   71°13′09″W
темп.,
°C
ветер,
м/с
пор.,
м/с
влажн.,
%
обл.,
%
осадки,
мм/ч
давл.,
гПа
погр.,
м
25 января, пн
пн2501:00−16зюз5109066 0.0 1018266
04:00−17зюз6119189 0.0 1019316
07:00−17зюз6119194 0.0 1019305
10:00−15зюз6109194 0.0 1019339
13:00−11зюз7129174 0.0 1018480
16:00−10зюз6118972 0.0 1018413
19:00−12зюз599336 0.0 1020209
22:00−15зюз479515 0.0 1021159
26 января, вт
вт2601:00−16юз369723 0.0 1021137
04:00−18юз239818 0.0 102147
07:00−19юз239718 0.0 102229
10:00−14ююз019253 0.0 1021201
13:00−10всв118970 0.0 1019276
16:00−11всв239471 0.0 101862
19:00−13всв3109386 0.0 1019210
22:00−10всв51292100 0.0 1018317
27 января, ср
ср2701:00−10всв51293100 0.0 1017316
04:00−9всв6129390 0.0 1017357
07:00−8всв6129295 0.0 1017367
10:00−6всв61193100 0.1 1017400
13:00−4всв6119399 0.2 1015420
16:00−4всв5119399 0.1 1015456
19:00−3всв5119599 0.4 1016439
22:00−4всв51095100 0.3 1016346
28 января, чт
чт2801:00−5всв51095100 1.0 1015343
04:00−5всв4995100 0.7 1014340
07:00−6всв3995100 1.1 1014310
10:00−4св2595100 0.8 1014373
13:00−3всв1195100 1.3 1013268
16:00−4зюз4895100 0.7 1013495
19:00−9зюз61094100 1.1 1014290
22:00−12юз5995100 0.6 1014330
29 января, пт
пт2901:00−13юз4795100 1.3 1014275
04:00−13юз3596100 0.3 1014187
07:00−16зюз249392 0.3 101663
10:00−13з478418 0.0 1017410
13:00−10з57799 0.0 1016737
16:00−11зсз510780 0.0 1017536
19:00−15з49822 0.0 1019195
22:00−16зсз35878 0.0 1020111